| time (UTC) | temp F | wind direction | speed MPH | gust MPH | rain 1hr in | rain 24hr in | rain mn in | humidity % | barometer mb |
| 20260903041527 | 53 | 233 | 7.0 | 13.0 | 0.00 | 0.15 | 0.15 | 86 | 1006.2 |
| 20260903040027 | 55 | 248 | 12.0 | 18.0 | 0.01 | 0.15 | 0.15 | 86 | 1006.1 |
| 20260903034533 | 56 | 221 | 19.0 | 24.0 | 0.01 | 0.15 | 0.15 | 80 | 1005.8 |
| 20260903033026 | 56 | 176 | 13.0 | 17.0 | 0.01 | 0.15 | 0.15 | 79 | 1005.0 |
| 20260903031533 | 57 | 167 | 15.0 | 21.0 | 0.01 | 0.15 | 0.15 | 79 | 1005.0 |
| 20260903030025 | 57 | 171 | 16.0 | 22.0 | 0.00 | 0.14 | 0.14 | 78 | 1004.8 |
| 20260903024524 | 58 | 166 | 11.0 | 18.0 | 0.01 | 0.14 | 0.14 | 80 | 1004.9 |
| 20260903023030 | 58 | 167 | 10.0 | 13.0 | 0.02 | 0.14 | 0.14 | 81 | 1004.8 |
| 20260903021524 | 58 | 171 | 7.0 | 13.0 | 0.02 | 0.14 | 0.14 | 82 | 1004.8 |
| 20260903020052 | 58 | 167 | 9.0 | 14.0 | 0.03 | 0.14 | 0.14 | 81 | 1005.0 |
| 20260903014522 | 58 | 169 | 6.0 | 10.0 | 0.02 | 0.13 | 0.13 | 82 | 1005.0 |
| 20260903013022 | 59 | 160 | 8.0 | 12.0 | 0.02 | 0.12 | 0.12 | 80 | 1005.1 |
| 20260903011522 | 59 | 198 | 10.0 | 14.0 | 0.02 | 0.12 | 0.12 | 78 | 1005.0 |
| 20260903010022 | 59 | 180 | 4.0 | 8.0 | 0.01 | 0.11 | 0.11 | 80 | 1005.0 |
| 20260903004521 | 59 | 209 | 7.0 | 9.0 | 0.01 | 0.11 | 0.11 | 78 | 1005.0 |
| 20260903003020 | 59 | 178 | 5.0 | 7.0 | 0.01 | 0.10 | 0.10 | 83 | 1005.0 |
| 20260903001522 | 58 | 69 | 0.0 | 3.0 | 0.01 | 0.10 | 0.10 | 87 | 1005.0 |
| 20260903000020 | 57 | 72 | 2.0 | 4.0 | 0.03 | 0.10 | 0.10 | 87 | 1004.9 |
| 20260902234519 | 57 | 41 | 4.0 | 8.0 | 0.04 | 0.10 | 0.10 | 86 | 1004.9 |
| 20260902233018 | 58 | 119 | 4.0 | 5.0 | 0.03 | 0.09 | 0.09 | 85 | 1005.0 |
| 20260902231517 | 60 | 26 | 4.0 | 6.0 | 0.04 | 0.09 | 0.09 | 82 | 1004.9 |
| 20260902230017 | 60 | 148 | 4.0 | 7.0 | 0.02 | 0.07 | 0.07 | 78 | 1005.0 |
| 20260902224517 | 59 | 157 | 3.0 | 8.0 | 0.03 | 0.06 | 0.06 | 79 | 1004.9 |
| 20260902223015 | 60 | 171 | 8.0 | 12.0 | 0.04 | 0.06 | 0.06 | 74 | 1004.8 |
| 20260902221532 | 60 | 180 | 7.0 | 18.0 | 0.04 | 0.05 | 0.05 | 73 | 1005.0 |
| 20260902220015 | 59 | 263 | 1.0 | 5.0 | 0.05 | 0.05 | 0.05 | 79 | 1005.2 |
| 20260902214513 | 60 | 211 | 6.0 | 9.0 | 0.03 | 0.03 | 0.03 | 73 | 1005.2 |
| 20260902213013 | 60 | 209 | 7.0 | 11.0 | 0.02 | 0.02 | 0.02 | 70 | 1005.6 |
| 20260902211513 | 61 | 186 | 9.0 | 13.0 | 0.01 | 0.01 | 0.01 | 63 | 1005.3 |
| 20260902210013 | 62 | 188 | 7.0 | 10.0 | 0.00 | 0.00 | 0.00 | 64 | 1005.1 |
| 20260902204514 | 61 | 200 | 7.0 | 19.0 | 0.00 | 0.00 | 0.00 | 66 | 1005.1 |
| 20260902203013 | 63 | 205 | 16.0 | 23.0 | 0.00 | 0.00 | 0.00 | 60 | 1005.1 |
| 20260902201511 | 65 | 218 | 15.0 | 25.0 | 0.00 | 0.00 | 0.00 | 58 | 1004.7 |
| 20260902200010 | 65 | 229 | 16.0 | 25.0 | 0.00 | 0.00 | 0.00 | 56 | 1004.3 |
| 20260902194521 | 67 | 340 | 4.0 | 8.0 | 0.00 | 0.00 | 0.00 | 49 | 1003.7 |
| 20260902193009 | 68 | 355 | 3.0 | 7.0 | 0.00 | 0.00 | 0.00 | 48 | 1003.8 |
| 20260902191514 | 67 | 81 | 4.0 | 8.0 | 0.00 | 0.00 | 0.00 | 49 | 1004.0 |
| 20260902190005 | 67 | 128 | 3.0 | 9.0 | 0.00 | 0.00 | 0.00 | 49 | 1004.2 |
| 20260902184502 | 66 | 61 | 5.0 | 8.0 | 0.00 | 0.00 | 0.00 | 51 | 1004.4 |
| 20260902183002 | 66 | 29 | 4.0 | 9.0 | 0.00 | 0.00 | 0.00 | 51 | 1004.6 |
| 20260902181610 | 67 | 75 | 8.0 | 14.0 | 0.00 | 0.00 | 0.00 | 50 | 1004.6 |
| 20260902180104 | 66 | 207 | 2.0 | 6.0 | 0.00 | 0.00 | 0.00 | 52 | 1004.9 |
| 20260902174554 | 65 | 103 | 2.0 | 9.0 | 0.00 | 0.00 | 0.00 | 54 | 1005.0 |
| 20260902173056 | 63 | 284 | 2.0 | 6.0 | 0.00 | 0.00 | 0.00 | 57 | 1005.2 |
| 20260902171556 | 62 | 215 | 1.0 | 6.0 | 0.00 | 0.00 | 0.00 | 58 | 1005.3 |
| 20260902170047 | 61 | 161 | 3.0 | 7.0 | 0.00 | 0.00 | 0.00 | 59 | 1005.6 |
| 20260902164557 | 61 | 175 | 3.0 | 7.0 | 0.00 | 0.00 | 0.00 | 60 | 1005.7 |
| 20260902163041 | 60 | 189 | 4.0 | 9.0 | 0.00 | 0.00 | 0.00 | 62 | 1005.6 |
| 20260902161539 | 60 | 207 | 2.0 | 8.0 | 0.00 | 0.00 | 0.00 | 63 | 1005.8 |
| 20260902160046 | 59 | 229 | 5.0 | 10.0 | 0.00 | 0.00 | 0.00 | 65 | 1005.9 |
| 20260902154550 | 59 | 208 | 4.0 | 8.0 | 0.00 | 0.00 | 0.00 | 66 | 1005.9 |
| 20260902153037 | 59 | 226 | 5.0 | 10.0 | 0.00 | 0.00 | 0.00 | 68 | 1006.1 |
| 20260902151539 | 58 | 219 | 6.0 | 10.0 | 0.00 | 0.00 | 0.00 | 70 | 1006.2 |
| 20260902150036 | 58 | 229 | 6.0 | 9.0 | 0.00 | 0.00 | 0.00 | 71 | 1006.2 |
| 20260902144535 | 57 | 226 | 9.0 | 11.0 | 0.00 | 0.00 | 0.00 | 73 | 1006.2 |
| 20260902143036 | 55 | 221 | 5.0 | 8.0 | 0.00 | 0.00 | 0.00 | 79 | 1006.3 |
| 20260902141538 | 52 | 211 | 6.0 | 8.0 | 0.00 | 0.00 | 0.00 | 82 | 1006.4 |
| 20260902140037 | 51 | 215 | 5.0 | 8.0 | 0.00 | 0.00 | 0.00 | 83 | 1006.4 |
| 20260902134534 | 51 | 207 | 7.0 | 10.0 | 0.00 | 0.00 | 0.00 | 83 | 1006.3 |
| 20260902133033 | 51 | 217 | 8.0 | 10.0 | 0.00 | 0.00 | 0.00 | 83 | 1006.3 |
| 20260902131530 | 51 | 207 | 7.0 | 9.0 | 0.00 | 0.00 | 0.00 | 83 | 1006.4 |
| 20260902130038 | 52 | 209 | 7.0 | 9.0 | 0.00 | 0.00 | 0.00 | 82 | 1006.4 |
| 20260902124527 | 52 | 217 | 7.0 | 9.0 | 0.00 | 0.00 | 0.00 | 82 | 1006.6 |
| 20260902123030 | 53 | 217 | 6.0 | 9.0 | 0.00 | 0.00 | 0.00 | 82 | 1006.6 |
| 20260902121526 | 53 | 219 | 6.0 | 9.0 | 0.00 | 0.00 | 0.00 | 81 | 1006.6 |
| 20260902120025 | 54 | 228 | 8.0 | 10.0 | 0.00 | 0.00 | 0.00 | 81 | 1006.5 |
| 20260902114528 | 53 | 216 | 7.0 | 9.0 | 0.00 | 0.00 | 0.00 | 84 | 1006.6 |
| 20260902113021 | 53 | 218 | 5.0 | 7.0 | 0.00 | 0.00 | 0.00 | 80 | 1006.8 |
| 20260902111522 | 55 | 222 | 5.0 | 9.0 | 0.00 | 0.00 | 0.00 | 79 | 1006.7 |
| 20260902110023 | 55 | 227 | 10.0 | 12.0 | 0.00 | 0.00 | 0.00 | 78 | 1006.4 |
| 20260902104523 | 55 | 232 | 9.0 | 15.0 | 0.00 | 0.00 | 0.00 | 77 | 1006.3 |
| 20260902103015 | 55 | 230 | 10.0 | 19.0 | 0.00 | 0.00 | 0.00 | 77 | 1006.3 |
| 20260902101513 | 56 | 238 | 13.0 | 17.0 | 0.00 | 0.00 | 0.00 | 76 | 1006.1 |
| 20260902100012 | 56 | 215 | 11.0 | 16.0 | 0.00 | 0.00 | 0.00 | 76 | 1006.0 |
| 20260902094508 | 56 | 218 | 11.0 | 13.0 | 0.00 | 0.00 | 0.00 | 75 | 1006.2 |
| 20260902093007 | 56 | 236 | 11.0 | 16.0 | 0.00 | 0.00 | 0.00 | 73 | 1006.1 |
| 20260902091504 | 57 | 240 | 9.0 | 13.0 | 0.00 | 0.00 | 0.00 | 72 | 1006.0 |
| 20260902090002 | 58 | 238 | 13.0 | 19.0 | 0.00 | 0.00 | 0.00 | 70 | 1006.2 |
| 20260902084502 | 58 | 236 | 7.0 | 13.0 | 0.00 | 0.00 | 0.00 | 73 | 1006.0 |
| 20260902083057 | 59 | 248 | 13.0 | 20.0 | 0.00 | 0.00 | 0.00 | 70 | 1006.0 |
| 20260902081559 | 59 | 264 | 11.0 | 19.0 | 0.00 | 0.00 | 0.00 | 66 | 1006.1 |
| 20260902080058 | 60 | 244 | 14.0 | 22.0 | 0.00 | 0.00 | 0.00 | 65 | 1006.2 |
| 20260902074555 | 60 | 252 | 15.0 | 22.0 | 0.00 | 0.00 | 0.00 | 65 | 1005.9 |
| 20260902073054 | 60 | 246 | 15.0 | 22.0 | 0.00 | 0.00 | 0.00 | 66 | 1006.1 |
| 20260902071550 | 60 | 230 | 15.0 | 25.0 | 0.00 | 0.00 | 0.00 | 66 | 1005.9 |
| 20260902070046 | 59 | 227 | 13.0 | 22.0 | 0.00 | 0.00 | 0.00 | 65 | 1006.1 |
| 20260902064547 | 60 | 247 | 18.0 | 24.0 | 0.00 | 0.00 | 0.00 | 63 | 1005.8 |
| 20260902063055 | 61 | 250 | 20.0 | 28.0 | 0.00 | 0.00 | 0.00 | 62 | 1006.0 |
| 20260902061542 | 60 | 260 | 15.0 | 23.0 | 0.00 | 0.00 | 0.00 | 62 | 1005.9 |
| 20260902060041 | 61 | 242 | 18.0 | 26.0 | 0.00 | 0.00 | 0.00 | 60 | 1005.9 |
| 20260902054541 | 61 | 249 | 20.0 | 35.0 | 0.00 | 0.00 | 0.00 | 58 | 1005.9 |
| 20260902053040 | 61 | 245 | 22.0 | 31.0 | 0.00 | 0.00 | 0.00 | 59 | 1005.7 |
| 20260902051537 | 62 | 255 | 22.0 | 31.0 | 0.00 | 0.00 | 0.00 | 57 | 1005.5 |
| 20260902050037 | 62 | 247 | 21.0 | 33.0 | 0.00 | 0.00 | 0.00 | 58 | 1005.5 |
| 20260902044536 | 62 | 240 | 22.0 | 33.0 | 0.00 | 0.00 | 0.00 | 57 | 1005.2 |
| 20260902043042 | 62 | 249 | 22.0 | 33.0 | 0.00 | 0.00 | 0.00 | 57 | 1005.4 |